This demonstration page uses our WeatherBlox Daily Observations layout. Learn more.

Left ArrowRight Arrow

39.29038, -76.61219

Hourly Observations for January 3, 2020

Temp ( °F °C ) Dew Point ( °F °C ) Humidity (%) Winds ( mph kmh ) Pressure ( in mb ) Visibility ( mi km ) Precip ( " mm )
12:54 am 00:54 undefined 49 9.4 35 1.7 59 59 undefined N/A 29.85 1011 N/A 0.00 0.00
1:54 am 01:54 undefined 50 10 34 1.1 54 54 undefined N/A 29.84 1010 N/A 0.00 0.00
2:54 am 02:54 undefined 50 10 37 2.8 61 61 undefined N/A 29.84 1011 N/A 0.00 0.00
3:54 am 03:54 undefined 48 8.9 41 5 77 77 undefined N/A 29.83 1010 N/A 0.02 0.51
4:54 am 04:54 undefined 47 8.3 43 6.1 86 86 undefined N/A 29.83 1010 N/A 0.04 1.02
5:54 am 05:54 undefined 47 8.3 45 7.2 93 93 undefined N/A 29.82 1010 N/A 0.07 1.78
6:54 am 06:54 undefined 47 8.3 45 7.2 93 93 undefined N/A 29.83 1010 N/A 0.02 0.51
7:54 am 07:54 undefined 47 8.3 45 7.2 93 93 undefined N/A 29.82 1010 N/A 0.01 0.25
8:54 am 08:54 undefined 47 8.3 45 7.2 93 93 undefined N/A 29.86 1011 N/A 0.00 0.00
9:54 am 09:54 undefined 49 9.4 47 8.3 93 93 undefined N/A 29.83 1010 N/A 0.01 0.25
10:54 am 10:54 undefined 51 10.6 47 8.3 86 86 undefined N/A 29.84 1010 N/A 0.00 0.00
11:54 am 11:54 undefined 52 11.1 48 8.9 86 86 undefined N/A 29.80 1009 N/A 0.00 0.00
12:54 pm 12:54 undefined 53 11.7 48 8.9 83 83 undefined N/A 29.80 1009 N/A 0.00 0.00
1:54 pm 13:54 undefined 53 11.7 48 8.9 83 83 undefined N/A 29.82 1010 N/A 0.00 0.00
2:54 pm 14:54 undefined 54 12.2 48 8.9 80 80 undefined N/A 29.80 1009 N/A 0.00 0.00
3:54 pm 15:54 undefined 53 11.7 48 8.9 83 83 undefined N/A 29.83 1010 N/A 0.00 0.00
4:54 pm 16:54 undefined 51 10.6 47 8.3 86 86 undefined N/A 29.80 1009 N/A 0.00 0.00
5:54 pm 17:54 undefined 52 11.1 48 8.9 86 86 undefined N/A 29.83 1010 N/A 0.00 0.00
6:54 pm 18:54 undefined 51 10.6 48 8.9 89 89 undefined N/A 29.80 1009 N/A 0.00 0.00
7:54 pm 19:54 undefined 50 10 48 8.9 93 93 undefined N/A 29.82 1010 N/A 0.03 0.76
8:54 pm 20:54 undefined 49 9.4 48 8.9 97 97 undefined N/A 29.85 1011 N/A 0.03 0.76
9:54 pm 21:54 undefined 50 10 48 8.9 93 93 undefined N/A 29.79 1009 N/A 0.03 0.76
10:54 pm 22:54 undefined 50 10 48 8.9 93 93 undefined N/A 29.82 1010 N/A 0.00 0.00
11:54 pm 23:54 undefined 49 9.4 48 8.9 97 97 undefined N/A 29.78 1009 N/A 0.01 0.25

Powered by AerisWeather